Poplar Bluff, MO

2:18 AM CDT on July 23, 2017 (GMT -0500)
Poplar Bluff Municipal

Weather History for KPOF - November, 2013

Change the Weather History Date:

Thursday, November 21, 2013

  Actual Average Record
Temperature  
Mean Temperature 49 °F -  
Max Temperature 55 °F 56 °F 77 °F (1943)
Min Temperature 43 °F 34 °F 10 °F (1937)
Degree Days  
Heating Degree Days 16    
Moisture  
Dew Point 48 °F    
Average Humidity 82    
Maximum Humidity 88    
Minimum Humidity 66    
Precipitation  
Precipitation 0.49 in - - ()
Sea Level Pressure  
Sea Level Pressure 30.14 in    
Wind  
Wind Speed 3 mph (ESE)    
Max Wind Speed 9 mph    
Max Gust Speed -    
Visibility 4 miles    
Events Rain    
Averages and records for this station are not official NWS values.
T = Trace of Precipitation, MM = Missing Value Source: NWS Daily Summary

Daily Weather History Graph

Daily Weather History Graph

Search for Another Location

Airport or City:

Trip Planner

Search our weather history database for the weather conditions in past years. The results will help you decide how hot, cold, wet, or windy it might be!

Date:

Astronomy

Nov. 21, 2013 Rise Set
Actual Time 6:45 AM CST 4:48 PM CST
Civil Twilight 6:17 AM CST 5:16 PM CST
Nautical Twilight 5:46 AM CST 5:47 PM CST
Astronomical Twilight 5:15 AM CST 6:18 PM CST
Moon 8:24 PM CST (11/21) 9:52 AM CST (11/21)
Length of Visible Light 10h 58m
Length of Day
10h 02m
Waning Gibbous, 85% of the Moon is Illuminated
Nov 21
Waning Gibbous
Nov 25
Last Quarter
Dec 2
New
Dec 9
First Quarter
Dec 17
Full

Hourly Weather History & Observations

Time (CST) Temp. Windchill Dew Point Humidity Pressure Visibility Wind Dir Wind Speed Gust Speed Precip Events Conditions
12:53 AM 43.0 °F 41.3 °F 37.0 °F 80% 30.13 in 10.0 mi ENE 3.5 mph - N/A   Clear
1:53 AM 45.0 °F 43.5 °F 37.0 °F 74% 30.13 in 10.0 mi SE 3.5 mph - N/A   Partly Cloudy
2:53 AM 45.0 °F 43.5 °F 37.9 °F 76% 30.12 in 10.0 mi East 3.5 mph - N/A   Scattered Clouds
3:53 AM 48.9 °F - 37.9 °F 66% 30.11 in 10.0 mi Calm Calm - N/A   Partly Cloudy
4:53 AM 48.9 °F - 39.0 °F 69% 30.12 in 10.0 mi Calm Calm - N/A   Clear
5:53 AM 48.9 °F - 41.0 °F 74% 30.16 in 10.0 mi North 3.5 mph - N/A   Overcast
6:53 AM 50.0 °F - 41.0 °F 71% 30.17 in 10.0 mi Calm Calm - N/A   Overcast
7:53 AM 50.0 °F - 41.0 °F 71% 30.18 in 10.0 mi East 4.6 mph - 0.00 in   Overcast
8:53 AM 52.0 °F - 42.1 °F 69% 30.19 in 9.0 mi SE 3.5 mph - N/A   Overcast
9:53 AM 52.0 °F - 45.0 °F 77% 30.19 in 8.0 mi East 5.8 mph - 0.02 in Rain Light Rain
10:53 AM 52.0 °F - 46.0 °F 80% 30.18 in 8.0 mi East 4.6 mph - 0.02 in Rain Light Rain
11:02 AM 52.0 °F - 45.0 °F 77% 30.17 in 5.0 mi East 5.8 mph - 0.00 in Rain Light Rain
11:53 AM 52.0 °F - 46.0 °F 80% 30.16 in 7.0 mi East 5.8 mph - 0.04 in Rain Light Rain
12:29 PM 53.1 °F - 46.9 °F 80% 30.13 in 4.0 mi ESE 5.8 mph - 0.04 in Rain Light Rain
12:53 PM 54.0 °F - 48.0 °F 80% 30.13 in 6.0 mi ESE 4.6 mph - 0.04 in   Haze
1:40 PM 55.0 °F - 48.9 °F 80% 30.12 in 1.8 mi Calm Calm - 0.04 in Rain Rain
1:46 PM 55.0 °F - 48.9 °F 80% 30.11 in 2.0 mi Calm Calm - 0.06 in Rain Light Rain
1:50 PM 55.4 °F - 48.2 °F 77% 30.12 in 4.0 mi Calm Calm - 0.06 in Rain Light Rain
1:53 PM 55.0 °F - 50.0 °F 83% 30.13 in 5.0 mi Calm Calm - 0.06 in   Haze
2:14 PM 55.0 °F - 50.0 °F 83% 30.14 in 2.0 mi Calm Calm - 0.03 in Rain Rain
2:30 PM 54.0 °F - 48.9 °F 83% 30.13 in 1.8 mi East 4.6 mph - 0.07 in Rain Rain
2:53 PM 54.0 °F - 48.9 °F 83% 30.13 in 2.0 mi East 6.9 mph - 0.14 in Rain Light Rain
3:01 PM 54.0 °F - 48.9 °F 83% 30.13 in 1.5 mi East 4.6 mph - 0.02 in Rain Rain
3:13 PM 54.0 °F - 48.9 °F 83% 30.12 in 2.0 mi East 4.6 mph - 0.03 in Rain Light Rain
3:17 PM 54.0 °F - 50.0 °F 86% 30.12 in 2.0 mi East 5.8 mph - 0.03 in Rain Light Rain
3:23 PM 54.0 °F - 50.0 °F 86% 30.13 in 1.8 mi East 4.6 mph - 0.04 in Rain Light Rain
3:30 PM 54.0 °F - 50.0 °F 86% 30.15 in 2.5 mi Calm Calm - 0.04 in Rain Light Rain
3:40 PM 54.0 °F - 50.0 °F 86% 30.14 in 3.0 mi NE 3.5 mph - 0.04 in Rain Light Rain
3:53 PM 54.0 °F - 50.0 °F 86% 30.14 in 1.8 mi ENE 4.6 mph - 0.05 in Rain Light Rain
3:56 PM 54.0 °F - 50.0 °F 86% 30.13 in 2.0 mi ENE 4.6 mph - 0.00 in Rain Light Rain
4:10 PM 54.0 °F - 50.0 °F 86% 30.13 in 2.0 mi SSE 8.1 mph - 0.00 in Rain Light Rain
4:17 PM 54.0 °F - 50.0 °F 86% 30.13 in 1.8 mi SE 9.2 mph - 0.00 in Rain Light Rain
4:35 PM 55.0 °F - 50.0 °F 83% 30.14 in 2.0 mi SE 4.6 mph - 0.07 in Rain Light Rain
4:45 PM 55.0 °F - 50.0 °F 83% 30.13 in 1.8 mi SE 9.2 mph - 0.09 in Rain Light Rain
4:53 PM 55.0 °F - 50.0 °F 83% 30.14 in 2.0 mi SE 8.1 mph - 0.10 in Rain Light Rain
5:02 PM 55.0 °F - 50.0 °F 83% 30.14 in 4.0 mi SSE 6.9 mph - 0.00 in Rain Light Rain
5:27 PM 55.0 °F - 50.0 °F 83% 30.13 in 5.0 mi SE 8.1 mph - 0.01 in Rain Light Rain
5:48 PM 55.4 °F - 50.0 °F 82% 30.14 in 5.0 mi SSE 5.8 mph - 0.01 in   Haze
5:49 PM 55.0 °F - 50.0 °F 83% 30.15 in 6.0 mi SSE 6.9 mph - 0.01 in   Haze
6:41 PM 55.0 °F - 51.1 °F 86% 30.16 in 5.0 mi South 5.8 mph - N/A   Overcast
6:53 PM 55.0 °F - 51.1 °F 86% 30.15 in 2.5 mi South 5.8 mph - 0.00 in Rain Light Rain
7:01 PM 55.0 °F - 51.1 °F 86% 30.14 in 2.5 mi SE 6.9 mph - 0.00 in   Overcast
7:19 PM 55.0 °F - 51.1 °F 86% 30.14 in 2.5 mi SSE 5.8 mph - 0.01 in   Overcast
7:29 PM 55.0 °F - 51.1 °F 86% 30.14 in 3.0 mi SE 3.5 mph - 0.01 in   Overcast
7:34 PM 55.0 °F - 51.1 °F 86% 30.15 in 2.5 mi SE 5.8 mph - 0.01 in   Overcast
7:48 PM 55.4 °F - 51.8 °F 88% 30.15 in 2.5 mi Calm Calm - 0.01 in   Overcast
7:49 PM 55.0 °F - 51.1 °F 86% 30.16 in 2.5 mi Calm Calm - 0.01 in   Overcast
7:57 PM 55.9 °F - 51.1 °F 84% 30.15 in 3.0 mi Calm Calm - N/A   Haze
8:11 PM 55.9 °F - 51.1 °F 84% 30.16 in 2.5 mi Calm Calm - N/A   Haze
8:22 PM 55.9 °F - 51.1 °F 84% 30.15 in 2.5 mi Calm Calm - N/A   Haze
8:53 PM 55.9 °F - 51.1 °F 84% 30.16 in 1.8 mi Calm Calm - N/A   Haze
9:53 PM 55.9 °F - 52.0 °F 87% 30.17 in 1.0 mi Calm Calm - 0.00 in   Overcast
10:35 PM 55.9 °F - 52.0 °F 87% 30.15 in 0.8 mi Calm Calm - N/A   Overcast
10:53 PM 55.9 °F - 52.0 °F 87% 30.15 in 0.8 mi Calm Calm - 0.00 in Rain Light Rain
11:03 PM 55.9 °F - 52.0 °F 87% 30.15 in 0.8 mi Calm Calm - 0.00 in Rain Light Rain
11:26 PM 55.9 °F - 52.0 °F 87% 30.16 in 0.8 mi NW 3.5 mph - 0.00 in   Overcast
11:34 PM 55.9 °F - 52.0 °F 87% 30.16 in 1.0 mi NW 3.5 mph - 0.00 in   Overcast
11:53 PM 55.9 °F - 52.0 °F 87% 30.17 in 1.0 mi Calm Calm - 0.00 in   Overcast